La Baie, Quebec

9:09 AM ADT on September 26, 2017 (GMT -0300)
La Baie

Weather History for CWUX - October, 2012

Change the Weather History Date:

Monday, October 22, 2012

  Actual Average (CYBG) Record (CYBG)
Temperature  
Mean Temperature 46 °F -  
Max Temperature 50 °F 43 °F 68 °F (2007)
Min Temperature 37 °F 30 °F 23 °F (2014)
Degree Days  
Heating Degree Days 20    
Moisture  
Dew Point 39 °F    
Average Humidity 76    
Maximum Humidity 93    
Minimum Humidity 42    
Precipitation  
Precipitation 0.00 in - - ()
Sea Level Pressure  
Sea Level Pressure 29.68 in    
Wind  
Wind Speed 16 mph ()    
Max Wind Speed 23 mph    
Max Gust Speed 32 mph    
Averages and records for this station are not official NWS values.
T = Trace of Precipitation, MM = Missing Value Source: Averaged Metar Reports

Daily Weather History Graph

Daily Weather History Graph

Search for Another Location

Airport or City:

Trip Planner

Search our weather history database for the weather conditions in past years. The results will help you decide how hot, cold, wet, or windy it might be!

Date:

Astronomy

Oct. 22, 2012 Rise Set
Actual Time 8:14 AM ADT 6:40 PM ADT
Civil Twilight 7:42 AM ADT 7:12 PM ADT
Nautical Twilight 7:06 AM ADT 7:49 PM ADT
Astronomical Twilight 6:30 AM ADT 8:25 PM ADT
Moon 3:16 PM ADT (10/22) 12:25 AM ADT (10/22)
Length of Visible Light 11h 30m
Length of Day
10h 26m
First Quarter, 55% of the Moon is Illuminated
Oct 22
First Quarter
Oct 29
Full
Nov 6
Last Quarter
Nov 13
New
Nov 20
First Quarter

Hourly Weather History & Observations

Time (ADT) Temp. Windchill Dew Point Humidity Pressure Visibility Wind Dir Wind Speed Gust Speed Precip Events Conditions
12:00 AM 46.8 °F - 43.3 °F 88% 29.57 in - West 16.1 mph 23.0 mph N/A   Unknown
1:00 AM 45.5 °F 38.6 °F 42.8 °F 90% 29.57 in - West 16.1 mph 24.2 mph N/A   Unknown
2:00 AM 44.4 °F 36.9 °F 42.1 °F 91% 29.57 in - West 17.3 mph 25.3 mph N/A   Unknown
3:00 AM 45 °F - 42 °F 87% 29.57 in - West 19.6 mph - -  
3:00 AM 45.0 °F 37.1 °F 42.4 °F 91% 29.57 in - West 19.6 mph 27.6 mph N/A   Unknown
4:00 AM 45.0 °F 37.6 °F 43.2 °F 93% 29.59 in - West 17.3 mph - N/A   Unknown
5:00 AM 45.5 °F 38.1 °F 42.8 °F 90% 29.60 in - West 18.4 mph 28.8 mph N/A   Unknown
6:00 AM 46.0 °F 38.5 °F 42.6 °F 88% 29.61 in - West 19.6 mph 28.8 mph N/A   Unknown
7:00 AM 46.0 °F 38.5 °F 41.9 °F 85% 29.63 in - West 19.6 mph 31.1 mph N/A   Unknown
8:00 AM 45.3 °F 38.1 °F 42.6 °F 90% 29.65 in - West 17.3 mph 24.2 mph N/A   Unknown
9:00 AM 46 °F - 42 °F 79% 29.68 in - WNW 20.7 mph - -  
9:00 AM 46.0 °F 38.3 °F 41.5 °F 84% 29.68 in - WNW 20.7 mph 31.1 mph N/A   Unknown
10:00 AM 46.0 °F 37.8 °F 39.9 °F 79% 29.70 in - WNW 23.0 mph 32.2 mph N/A   Unknown
11:00 AM 46.6 °F - 36.5 °F 68% 29.71 in - WNW 20.7 mph 28.8 mph N/A   Unknown
12:00 PM 47.3 °F - 35.2 °F 63% 29.73 in - WNW 19.6 mph 28.8 mph N/A   Unknown
1:00 PM 47.7 °F - 35.2 °F 62% 29.73 in - WNW 18.4 mph 27.6 mph N/A   Unknown
2:00 PM 49.5 °F - 33.1 °F 53% 29.74 in - WNW 18.4 mph 26.5 mph N/A   Unknown
3:00 PM 49 °F - 33 °F 42% 29.75 in - WNW 19.6 mph - -  
3:00 PM 48.6 °F - 33.1 °F 55% 29.75 in - WNW 19.6 mph 28.8 mph N/A   Unknown
9:00 PM 41 °F - 29 °F 50% 29.91 in - WNW 12.7 mph - -  
11:00 PM 37.9 °F 30.5 °F 30.0 °F 73% 29.95 in - WNW 11.5 mph - N/A   Unknown